www.pogodaiklimat.ru

Погода и климат >> Архив погоды >> Индия >> Jhansi


ПОГОДА в Jhansi

  • Прогноз погоды в Jhansi
  • Монитор погоды в Jhansi
  • Климат города

АРХИВ ПОГОДЫ в Jhansi

Время (UTC), дата Ветер
(напр.,м/с)
 
Видим.   Явления Облачность Т
(С)
Тd
(С)
f
(%)
Тe
(С)
Тes
(С)
Комфортность P
(гПа)
Po
(гПа)
Тmin
(С)
Tmax
(С)
R
(мм)
R24
(мм)
S
(см)
03 13.08 ЮЗ 3 4000 м мгла 10/5 750 м
[Cb calv As op]
+27.0 +23.5 81 +37 +37 очень
душно
1006.3 1006.0 +25.1 +32.4
06 13.08 ЮЗ 4 4000 м мгла 8/4 750 м
[Cu Sc Ac trans]
+29.4 +24.0 73 +41 +46 опасность
перегрева
1006.3 1006.0
12 13.08 ЮЗ 2 4000 м мгла 9/5 750 м
[Cu Sc As op]
+30.0 +24.9 74 +43 +43 опасность
перегрева
1004.4 1004.0 +32.6
03 14.08 З 2 4000 м мгла 8/4 750 м
[Cu Sc Ac trans]
+27.4 +24.2 83 +38 +41 очень
душно
1008.6 1009.0 +25.3 +32.6
06 14.08 ЮЗ 2 4000 м мгла 6/0
[Ac trans Ci fib]
+31.0 +24.4 68 +43 +59 опасность
перегрева
1007.7 1008.0
09 14.08 З 3 4000 м мгла 8/5 750 м
[Cu Sc Ac trans]
+32.8 +24.9 63 +46 +51 опасность
перегрева
1006.8 1007.0
12 14.08 З 3 4000 м мгла 8/5 750 м
[Cu Sc Ac trans]
+31.0 +25.1 71 +45 +45 опасность
перегрева
1005.5 1006.0 +33.6
03 15.08 ЮЗ 2 4000 м 5/0 600 м
[Ac trans Ci fib]
+28.2 +24.2 79 +39 +45 очень
душно
1007.5 1008.0 +25.5 +33.6
06 15.08 ЮЗ 3 4000 м мгла 6/4 750 м
[Cu Sc Ac trans]
+32.8 +24.3 61 +45 +54 опасность
перегрева
1007.4 1007.0
09 15.08 ЮЗ 3 4000 м мгла 9/5 750 м
[Cb calv As op]
+33.0 +24.2 60 +45 +48 опасность
перегрева
1004.7 1005.0
12 15.08 ЮЗ 2 4000 м мгла 9/5 750 м
[Cu Sc As op]
+30.8 +24.8 70 +44 +44 опасность
перегрева
1003.2 1003.0 +34.5
03 16.08 ЮЗ 3 4000 м 4/0
[Ac trans Ci fib]
+29.0 +23.5 72 +39 +45 очень
душно
1005.8 1006.0 +25.6 +34.5
06 16.08 ЮЗ 2 4000 м мгла 6/4 750 м
[Cu Sc Ac trans]
+32.6 +24.0 61 +45 +54 опасность
перегрева
1004.7 1005.0
09 16.08 З 2 4000 м мгла 8/5 750 м
[Cu Sc Ac trans]
+34.0 +24.4 57 +46 +51 опасность
перегрева
1002.5 1003.0
12 16.08 З 4 4000 м мгла 8/4 750 м
[Cu Sc Ac trans]
+32.6 +25.0 64 +46 +46 опасность
перегрева
1000.9 1001.0 +34.7
03 17.08 З 2 4000 м ясно +29.8 +24.7 74 +42 +50 опасность
перегрева
1003.6 1004.0 +27.2 +34.7
06 17.08 З 3 4000 м 4/0
[Ac trans Ci fib]
+34.0 +24.7 58 +47 +62 опасность
перегрева
1003.0 1003.0
09 17.08 З 3 4000 м мгла 6/4 750 м
[Cu Sc Ac trans]
+35.4 +24.0 52 +47 +54 опасность
перегрева
1001.1 1001.0
12 17.08 ЮЗ 2 4000 м мгла 6/4 750 м
[Cu Sc Ci fib]
+34.8 +25.0 57 +48 +49 опасность
перегрева
999.9 1000.0 +36.2
03 18.08 штиль 0 4000 м 5/0
[Ac trans Ci fib]
+29.4 +25.4 79 +43 +51 опасность
перегрева
1003.0 1003.0 +27.6 +36.2
06 18.08 З 2 4000 м мгла 6/4 750 м
[Cu Sc Ac trans]
+33.0 +25.4 64 +47 +57 опасность
перегрева
1003.0 1003.0
09 18.08 СВ 3 4000 м мгла 6/4 750 м
[Cu Sc Ac trans]
+35.0 +25.2 57 +49 +56 опасность
перегрева
1000.9 1001.0
12 18.08 СЗ 4 4000 м мгла 9/5 750 м
[Cb calv Ac trans]
+31.0 +26.6 77 +47 +48 опасность
перегрева
999.0 999.0 +35.6
03 19.08 СВ 2 4000 м мгла 9/5 750 м
[Sc diur, vesp Ac trans]
+29.0 +26.2 85 +44 +46 опасность
перегрева
1004.5 1005.0 +26.1 +35.6
06 19.08 СВ 2 4000 м мгла 9/5 750 м
[Sc diur, vesp Ac trans]
+32.4 +25.4 67 +47 +52 опасность
перегрева
1004.5 1005.0
09 19.08 ЮЗ 4 4000 м мгла 6/4 750 м
[Cu Sc Ac trans]
+35.2 +25.7 58 +50 +55 опасность
перегрева
1001.3 1001.0
12 19.08 ЮВ 2 4000 м мгла {дождь} 8/5 750 м
[Cu Sc Ac trans]
+32.8 +25.5 66 +48 +48 опасность
перегрева
1001.0 1001.0 +35.5 0.6

 

Местоположение метеостанции Jhansi (Uttar Pradesh, Индия): широта 25.45 долгота 78.62 высота над уровнем моря 258 м.

В архиве по умолчанию представлена погода в Jhansi за последнюю неделю. Архивные данные за месяц целиком и за предыдущие месяцы, начиная с января 2011 года, Вы можете получить, выбрав интересующий диапазон дат из раскрывающегося списка и нажав кнопку "Ввод!".

Внимание! Время в таблицах - всемирное. Для получения местного времени необходимо прибавить поправку, которая в Jhansi равна 5.5 ч.

Смотрите также архив погоды в соседних городах и на ближайших метеорологических станциях:

Погода в Tikamgarh (Madhya Pradesh, Индия) (79 км)
Погода в Nowgong (Madhya Pradesh, Индия) (94 км)
Погода в Gwalior (Madhya Pradesh, Индия) (94 км)
Погода в Shivpuri (Madhya Pradesh, Индия) (98 км)
Погода в Khajuraho (Madhya Pradesh, Индия) (141 км)
Погода в Guna (Madhya Pradesh, Индия) (158 км)
Погода в Hamirpur (Uttar Pradesh, Индия) (163 км)
Погода в Banda (Uttar Pradesh, Индия) (176 км)
Погода в Sagar (Madhya Pradesh, Индия) (178 км)
Погода в Sheopur (Madhya Pradesh, Индия) (196 км)

Пояснения к столбцам:

Ветер - указаны скорость ветра в м/с - средняя за 10 мин, порывы в срок и между сроками (в фигурных скобках) и направление, откуда дует ветер: С - северный, СВ - северо-восточный, В - восточный, ЮВ - юго-восточный, Ю - южный, ЮЗ - юго-западный, З - западный, СЗ - северо-западный.
Видимость - горизонтальная дальность видимости в метрах или километрах. При видимости от 1 до 10 км при отсутствии осадков обычно наблюдается дымка, при ухудшении видимости до 1 км и менее - туман. В сухую погоду видимость может ухудшаться дымом, пылью или мглою.
Явления - указаны атмосферные явления, наблюдавшиеся в срок или в последний час перед сроком; фигурными скобками обозначены явления, наблюдавшиеся между сроками (за 1-3 часа до срока); квадратными скобками обозначены град или гололедные отложения с указанием их диаметра в мм.
Облачность - указаны через наклонную черту общая и нижняя облачность в баллах и высота нижней границы облаков в метрах; квадратными скобками обозначены формы облаков: Ci - перистые, Cs - перисто-слоистые, Cc - перисто-кучевые, Ac - высококучевые, As - высокослоистые, Sc - слоисто-кучевые, Ns - слоисто-дождевые, Cu - кучевые, Cb - кучево-дождевые. Подробнее классификацию облаков см. в Атласе облаков (PDF).
T - Температура воздуха - температура, измеренная на высоте 2 м над землей.
Td - Температура точки росы - температура, при понижении до которой содержащийся в воздухе водяной пар достигнет насыщения.
f - Относительная влажность воздуха - влажноcть воздуха, измеренная на высоте 2 м над землей.
Te - Эффективная температура - температура, которую ощущает одетый по сезону человек в тени. Характеристика душности погоды. При расчете учитывается влияние влажности воздуха и скорости ветра на теплоощущения человека.
Tes - Эффективная температура на солнце - температура, которую ощущает человек, с поправкой на солнечный нагрев. Характеристика знойности погоды. Зависит от высоты солнца над горизонтом, облачности и скорости ветра. Ночью, в пасмурную погоду, а также при ветре 12 м/с и более поправка равна нулю.
P - Атмосферное давление - приведенное к уровню моря атмосферное давление.
Po - Атмосферное давление - измеренное на уровне метеостанции атмосферное давление.
Tmin - Минимальная температура - минимум температуры воздуха на высоте 2 м над землей.
Tmax - Максимальная температура - максимум температуры воздуха на высоте 2 м над землей.
R - Количество осадков - Количество выпавших осадков за период времени, мм. При наведении курсора мыши на число - период времени, за который выпало указанное количество осадков.
R24 - Количество осадков - Количество выпавших осадков за 24 часа, мм.
S - Снежный покров - Высота снежного покрова, см. При наведении курсора мыши на число - состояние снежного покрова и степень покрытия местности в баллах.